Yakima, WA
on Monday, December 10, 2012

Monday
Previous Day Next Day
Daily Summary
 ActualAverageRecord
Temperature
Mean Temperature °F 29°F  
Max Temperature 46°F 36°F 64°F (1946)
Min Temperature 23°F 21°F -5°F (1972)
Degree Days
Heating Degree Days 30 36  
Month to date heating degree days 240 348  
Since 1 July heating degree days 1478 1881  
Cooling Degree Days 0 0  
Month to date cooling degree days 0 0  
Year to date cooling degree days 667 472  
Moisture
Dew Point 27°F   
Average Humidity 79    
Maximum Humidity 92    
Minimum Humidity 65    
Precipitation
Precipitation 0.00 in 0.04 in 0.67 in (1992)
Month to date precipitation 0.74 0.48  
Year to date precipitation 7.93 7.20  
Snow
Snow 0.00 in 0.30 in 6.80 in (1992)
Month to date snowfall T 2.8  
Year to date snowfall 22.2 15.0  
Since 1 July snowfall 0.7 6.4  
Snow Depth 0.00 in   
Wind
Wind Speed 2 mph   
Max Wind Speed 10 mph   
Max Gust Speed 12 mph   
Visibility 7 miles   
Events     

Key: T is trace of precipitation, MM is missing value
Source: NWS Daily Summary
Time(PST)TemperatureDew PointHumidity Pressure Visibility Wind DirectionWind SpeedGust SpeedPrecipitationEvents Conditions
12:53 AM 26.1°F 21.9°F 84% 30.28 in 6.0 miles NW 4.6 mph - N/A   Clear
1:53 AM 27.0°F 23.0°F 85% 30.26 in 6.0 miles WNW 3.5 mph - N/A   Clear
2:53 AM 25.0°F 21.9°F 88% 30.28 in 6.0 miles East 3.5 mph - N/A   Clear
3:53 AM 24.1°F 21.0°F 88% 30.30 in 6.0 miles Calm Calm - N/A   Clear
4:53 AM 25.0°F 21.0°F 85% 30.32 in 6.0 miles West 5.8 mph - N/A   Clear
5:32 AM 24.8°F 19.4°F 80% 30.28 in 7.0 miles Calm Calm - N/A   Partly Cloudy
5:53 AM 23.0°F 19.9°F 88% 30.32 in 7.0 miles NW 3.5 mph - N/A   Partly Cloudy
6:53 AM 24.1°F 19.9°F 84% 30.34 in 7.0 miles Calm Calm - N/A   Partly Cloudy
7:53 AM 25.0°F 21.9°F 88% 30.35 in 5.0 miles SW 4.6 mph - N/A   Partly Cloudy
8:53 AM 30.0°F 26.1°F 85% 30.33 in 5.0 miles Calm Calm - N/A   Clear
9:53 AM 34.0°F 28.9°F 82% 30.33 in 10.0 miles Calm Calm - N/A   Haze
10:53 AM 37.0°F 30.0°F 76% 30.30 in 10.0 miles Calm Calm - N/A   Partly Cloudy
11:53 AM 41.0°F 33.1°F 73% 30.28 in 9.0 miles Calm Calm - N/A   Partly Cloudy
12:53 PM 44.1°F 33.1°F 65% 30.25 in 10.0 miles East 4.6 mph - N/A   Scattered Clouds
1:53 PM 44.1°F 33.1°F 65% 30.23 in 10.0 miles NNE 3.5 mph - N/A   Partly Cloudy
2:53 PM 45.0°F 33.1°F 63% 30.22 in 10.0 miles Calm Calm - N/A   Clear
3:53 PM 43.0°F 33.1°F 68% 30.21 in 10.0 miles Calm Calm - N/A   Clear
4:53 PM 36.0°F 30.9°F 82% 30.21 in 9.0 miles Calm Calm - N/A   Clear
5:53 PM 32.0°F 28.0°F 85% 30.21 in 7.0 miles Calm Calm - N/A   Clear
6:53 PM 32.0°F 28.0°F 85% 30.20 in 5.0 miles West 4.6 mph - N/A   Clear
7:53 PM 32.0°F 28.0°F 85% 30.19 in 5.0 miles Calm Calm - N/A   Clear
8:53 PM 32.0°F 28.9°F 88% 30.17 in 5.0 miles NW 3.5 mph - N/A   Clear
9:53 PM 33.1°F 28.9°F 85% 30.13 in 5.0 miles NW 3.5 mph - N/A   Clear
10:53 PM 30.9°F 28.0°F 89% 30.11 in 4.0 miles SW 4.6 mph - N/A   Clear
11:53 PM 30.9°F 27.0°F 85% 30.07 in 4.0 miles North 3.5 mph - N/A   Clear
Moon Phase
Dec. 10 Dec. 13 Dec. 20 Dec. 28 Jan. 04
Sunrise:07:35 AM (PST) Moon Rise:04:18 AM (PST)12/10
Sunset:04:14 PM (PST) Moon Set:02:13 PM (PST)12/10

Copyright © 2014 The Weather Underground, Inc.